Location: Bailleul
(50.3375°N, 2.8513°E)
Time: 00:21:46
(UTC+00:00)

Cosmos 1867 - Pass Details

Date: 29 October 2021
Orbit: 773 x 803 km, 65.0° (Epoch: 30 November)

Event Time Altitude Azimuth Distance (km) Brightness Sun altitude
Exits shadow 04:48:42 - 210° (SSW) 2,834 6.2 -17.3°
Reaches altitude 10° 04:49:57 10° 209° (SSW) 2,359 5.8 -17.1°
Maximum altitude 04:55:21 71° 126° (SE) 845 3.8 -16.2°
Drops below altitude 10° 05:00:50 10° 43° (NE) 2,387 6.6 -15.4°
Sets 05:03:17 0° 42° (NE) 3,323 7.4 -15.0°
